Location: Claremont
(35.7250°N, 81.1500°W)
Time: 04:01:09
(UTC-04:00)

Daily predictions for brighter satellites

Satellite Brightness Start Highest point End
(mag) Time Altitude Azimuth Time Altitude Azimuth Time Altitude Azimuth
Cosmos 2278 Rocket 4.1 00:15:47 10° N 00:18:23 25° N 00:18:23 25° N
Cosmos 2219 Rocket 4.2 00:47:14 24° NNW 00:47:14 24° NNW 00:49:46 10° N
CENTAUR R/B 4.1 00:44:42 10° NNW 00:51:56 37° NE 00:52:00 37° NE
USA 215 4.4 00:55:12 36° NNE 00:55:12 36° NNE 01:00:28 10° NNW
Cosmos 2333 Rocket 4.3 00:57:37 23° N 00:57:37 23° N 00:59:58 10° N
Cosmos 2237 Rocket 4.4 01:26:43 21° NNW 01:26:43 21° NNW 01:28:51 10° N
SL-16 R/B 4.4 02:31:15 19° NNW 02:31:15 19° NNW 02:33:29 10° N
CENTAUR R/B 4.2 02:35:08 10° NW 02:39:08 32° NW 02:39:08 32° NW
Cosmos 1943 Rocket 3.4 03:06:40 10° N 03:10:35 37° NNE 03:10:35 37° NNE
SL-16 R/B 3.3 03:12:49 46° ENE 03:13:04 46° ENE 03:18:58 10° N
Cosmos 2369 Rocket 3.8 03:10:29 10° NNW 03:13:04 28° NNW 03:13:04 28° NNW
ADEOS Rocket 3.9 03:10:54 10° N 03:14:17 39° N 03:14:17 39° N
Cosmos 1943 4.4 03:25:19 34° NNW 03:25:19 34° NNW 03:28:51 10° N
Cosmos 1821 Rocket 4.3 03:29:19 65° NE 03:29:19 65° NE 03:34:46 10° N
Resurs 1-4 Rocket 3.1 03:24:30 10° NNE 03:28:16 44° NE 03:28:16 44° NE
CZ-2D R/B 2.9 03:27:52 10° NNE 03:31:54 48° NE 03:31:54 48° NE
Cosmos 540 Rocket 4.3 03:42:52 47° NE 03:42:52 47° NE 03:46:43 10° NNE
Cosmos 1934 Rocket 3.9 03:47:32 76° ENE 03:47:32 76° ENE 03:53:15 10° N
Cosmos 1605 Rocket 4.3 03:56:13 56° SE 03:57:16 64° E 04:03:35 10° NNE
BREEZE-M DEB (TANK) 4.1 04:05:24 42° WNW 04:07:47 77° SW 04:28:34 10° SE
MOS 1 Rocket 4.2 04:04:31 10° N 04:07:21 40° N 04:07:21 40° N
COSMOS 2406 3.3 04:08:44 62° SE 04:09:09 64° ESE 04:14:47 10° NNE
Cosmos 1726 4.0 04:10:27 29° ENE 04:10:27 29° ENE 04:13:06 10° NNE
Meteor 2-1 Rocket 4.4 04:11:14 58° NW 04:11:14 58° NW 04:16:08 10° N
ARIANE 5 R/B 3.0 04:18:15 10° N 04:22:47 47° NW 04:22:47 47° NW
ADEOS II 3.6 04:19:30 10° NE 04:24:09 31° E 04:27:31 16° SSE
Cosmos 2285 Rocket 3.9 04:34:58 49° SSW 04:36:53 85° WNW 04:43:18 10° NNE
Cosmos 1315 Rocket 3.7 04:33:20 10° N 04:37:15 47° ENE 04:39:06 26° SE
IUS-9 SRM-1 4.5 04:36:37 22° SSE 04:37:25 23° SE 04:45:18 10° E
Cosmos 1447 Rocket 4.5 04:33:54 10° N 04:40:06 81° E 04:45:15 16° S
Cosmos 1300 3.0 04:41:31 58° ESE 04:41:51 61° E 04:45:37 10° NNE
ADEOS 4.2 04:38:13 10° N 04:42:59 37° WNW 04:43:02 37° WNW
SL-27 R/B 2.9 04:43:41 56° ENE 04:43:41 56° ENE 04:46:38 10° NNE
Cosmos 1666 Rocket 3.7 04:40:13 10° N 04:44:40 72° E 04:46:41 31° SSE
Cosmos 1805 Rocket 3.4 04:42:33 10° NNW 04:46:58 66° W 04:47:01 66° W
Cosmos 2221 3.9 04:51:18 25° NW 04:51:18 25° NW 04:54:04 10° NNW
Meteor 2-10 4.5 04:47:36 22° S 04:51:19 69° E 04:56:59 10° NNE
CZ-4B R/B 4.2 04:48:58 10° NNE 04:53:12 42° E 04:56:36 15° SSE
Okean O Rocket 3.1 04:49:42 10° NNE 04:53:45 34° E 04:57:36 11° SSE
USA 234 4.2 04:48:59 10° ENE 04:55:06 40° SE 04:59:33 18° S
Cosmos 1943 Rocket 4.2 04:51:16 10° NW 04:52:01 13° WNW 04:52:01 13° WNW
SL-16 R/B 3.7 04:57:55 23° W 04:57:55 23° W 05:01:46 10° NW
PSLV R/B 4.4 04:56:26 10° NNE 05:00:32 58° E 05:02:55 23° S
OAO 1 4.5 04:58:47 41° WSW 05:00:42 74° S 05:06:12 10° E
Cosmos 2173 Rocket 4.1 04:56:42 16° S 05:01:51 81° E 05:08:13 10° N
Tiangong 2 3.4 05:02:50 16° SSE 05:03:05 16° SE 05:05:10 10° E
MOS 1-B 4.3 04:58:02 10° NNE 05:03:53 87° WNW 05:07:45 22° SSW
Cosmos 773 Rocket 4.3 05:01:41 21° S 05:05:10 66° ESE 05:10:26 10° NNE
Cosmos 1656 Rocket 4.0 05:02:17 10° NW 05:07:36 42° WSW 05:10:38 23° SSW
Cosmos 2082 Rocket 3.9 05:02:53 10° SSE 05:07:40 30° ESE 05:12:28 10° NE
Resurs 1-4 Rocket 3.9 05:06:01 10° NNW 05:08:59 15° WNW 05:09:20 15° WNW
Cosmos 292 Rocket 4.1 05:08:51 37° WSW 05:10:08 47° WNW 05:14:47 10° N
Cosmos 1400 Rocket 4.3 05:09:21 10° NW 05:11:23 22° WNW 05:11:23 22° WNW
CZ-2D R/B 3.9 05:09:46 10° NNW 05:12:39 15° WNW 05:13:14 15° WNW
Cosmos 1151 Rocket 3.5 05:11:28 12° S 05:15:25 61° E 05:19:40 10° NNE
ASTRO E2 4.1 05:17:33 23° S 05:17:33 23° S 05:20:17 10° SE
CZ-3A R/B 3.7 05:12:44 10° WNW 05:18:04 32° WSW 05:23:29 10° S
ATLAS 2A CENTAUR R/B 4.1 05:18:42 12° SSE 05:18:42 12° SSE 05:19:44 10° SE
Meteor 2-2 Rocket 4.3 05:14:42 19° SSW 05:19:06 71° W 05:25:08 10° N
PAYLOAD B 4.4 05:19:07 10° NNE 05:24:44 75° ESE 05:30:18 10° S
Meteor 1-27 4.5 05:19:12 10° S 05:24:51 71° E 05:30:28 10° NNE
Cosmos 2228 Rocket 3.1 05:22:47 22° SSW 05:25:37 62° W 05:30:04 10° N
Sich 1 3.7 05:21:44 10° NNW 05:25:43 35° W 05:27:17 26° SW
CZ-4B R/B 3.5 05:20:40 10° NNE 05:26:08 67° ESE 05:31:27 10° S
Cosmos 1459 Rocket 4.0 05:22:14 15° SSW 05:27:18 61° W 05:33:19 10° N
Hubble Space Telescope 2.4 05:32:02 18° SSW 05:33:41 22° SSE 05:36:55 10° ESE
Cosmos 2061 Rocket 4.1 05:28:29 10° SSW 05:34:43 61° W 05:41:06 10° N
IRS-1C Rocket 4.2 05:31:19 10° NNE 05:36:37 79° ESE 05:41:51 10° S
Cosmos 1470 Rocket 3.4 05:32:33 10° NNW 05:36:52 71° W 05:41:09 10° S
Landsat 4 3.9 05:35:44 10° SSE 05:39:25 71° ENE 05:43:09 10° N
Cosmos 1892 2.9 05:36:56 10° N 05:40:45 72° E 05:44:34 10° SSE
Meteor PRIRODA 4.2 05:37:21 10° NNE 05:40:58 58° E 05:44:33 10° S
Cosmos 1515 Rocket 3.9 05:39:37 15° SSW 05:43:00 46° W 05:47:14 10° N
Cosmos 1726 4.2 05:45:05 12° WNW 05:45:12 12° WNW 05:46:47 10° NW
Shenzhou-11 Module 2.2 05:45:48 21° SW 05:47:40 62° SSE 05:50:44 10° ENE
In-Cosmos 22 Rocket 4.3 05:43:59 10° NNW 05:49:09 48° W 05:54:13 10° SSW
Cosmos 1633 Rocket 4.3 05:47:39 10° NW 05:51:02 22° W 05:53:42 13° SW
Kakehashi 4.2 05:47:16 15° WSW 05:51:58 58° S 06:01:47 10° E
Cosmos 923 Rocket 4.0 05:46:59 10° SSW 05:52:10 78° WNW 05:57:25 10° NNE
ERBS 2.7 05:53:30 10° NW 05:56:44 39° SW 05:59:55 10° SSE
Cosmos 2233 Rocket 4.3 05:54:00 10° S 06:00:05 71° E 06:06:12 10° N
ADEOS II 3.1 05:59:19 10° NNW 06:03:43 28° WNW 06:08:06 10° SW
Cosmos 2016 Rocket 4.3 05:58:07 10° SSW 06:03:54 43° W 06:09:42 10° N
Cosmos 1656 4.3 05:58:28 10° NNW 06:04:09 65° ENE 06:09:47 10° SSE
USA 229 DEB 4.5 06:01:13 10° NW 06:07:25 31° WSW 06:13:39 10° S
USA 229 4.5 06:01:19 10° NW 06:07:31 32° WSW 06:13:47 10° S
Cosmos 1833 Rocket 2.7 06:05:19 10° SSW 06:10:57 76° WNW 06:16:37 10° NNE
Cosmos 1680 Rocket 3.6 06:06:53 10° SSW 06:12:07 67° WNW 06:17:25 10° NNE
NOSS 3-1 (A) 4.2 06:05:14 10° NNW 06:13:06 83° WSW 06:21:38 10° SSE
BREEZE M DEB (TANK) 4.5 06:08:49 10° WNW 06:13:41 58° SW 06:34:32 10° SE
Cosmos 1725 Rocket 4.2 06:09:02 10° SSW 06:15:01 51° W 06:21:02 10° N
Cosmos 2112 Rocket 4.1 06:12:42 10° SSW 06:17:57 70° WNW 06:23:18 10° NNE
